Location: *
(45.9500°N, 9.0833°E)
Time: 18:08:52
(UTC+00:00)

Altair - All Passes

Search period start: 18 June 2021 00:00
Search period end: 28 June 2021 00:00
Orbit: 1501 x 1683 km, 47.2° (Epoch: 17 June)

Date Brightness Start Highest point End Pass type
(mag) Time Alt. Az. Time Alt. Az. Time Alt. Az.
18 Jun - 10:11:59 10° SE 10:14:21 11° ESE 10:16:45 10° ESE daylight
18 Jun - 12:08:19 10° SSW 12:16:56 43° SE 12:25:52 10° ENE daylight
18 Jun - 14:11:29 10° WSW 14:21:03 85° SSE 14:31:02 10° ENE daylight
18 Jun - 16:16:23 10° W 16:26:11 85° N 16:36:18 10° E daylight
18 Jun - 18:21:15 10° WNW 18:31:00 65° SSW 18:40:59 10° SE daylight
18 Jun - 20:26:51 10° W 20:34:33 26° SW 20:42:20 10° S visible
19 Jun - 11:43:23 10° SSW 11:51:51 40° SE 12:00:36 10° ENE daylight
19 Jun - 13:46:20 10° WSW 13:55:51 83° SSE 14:05:47 10° ENE daylight
19 Jun - 15:51:12 10° W 16:00:56 84° N 16:11:03 10° E daylight
19 Jun - 17:56:04 10° WNW 18:05:49 68° SSW 18:15:50 10° SE daylight
19 Jun - 20:01:30 10° WNW 20:09:29 28° SW 20:17:34 10° S visible
20 Jun - 11:18:31 10° SSW 11:26:46 37° SE 11:35:18 10° ENE daylight
20 Jun - 13:21:12 10° WSW 13:30:40 80° SSE 13:40:33 10° ENE daylight
20 Jun - 15:26:00 10° W 15:35:42 83° N 15:45:47 10° E daylight
20 Jun - 17:30:52 10° WNW 17:40:38 71° SSW 17:50:41 10° SE daylight
20 Jun - 19:36:10 10° WNW 19:44:24 31° SW 19:52:46 10° S visible
21 Jun - 10:53:40 10° SSW 11:01:42 34° SE 11:10:00 10° ENE daylight
21 Jun - 12:56:06 10° WSW 13:05:29 77° SSE 13:15:18 10° ENE daylight
21 Jun - 15:00:48 10° W 15:10:28 83° N 15:20:31 10° E daylight
21 Jun - 17:05:41 10° WNW 17:15:26 74° SSW 17:25:30 10° ESE daylight
21 Jun - 19:10:52 10° WNW 19:19:19 33° SW 19:27:54 10° SSE daylight
22 Jun - 10:28:51 10° SSW 10:36:39 32° SE 10:44:41 10° ENE daylight
22 Jun - 12:30:59 10° WSW 12:40:19 74° SSE 12:50:03 10° ENE daylight
22 Jun - 14:35:37 10° W 14:45:14 83° N 14:55:15 10° E daylight
22 Jun - 16:40:30 10° WNW 16:50:15 77° SSW 17:00:19 10° ESE daylight
22 Jun - 18:45:35 10° WNW 18:54:12 36° SW 19:03:01 10° SSE daylight
23 Jun - 10:04:04 10° S 10:11:36 29° SE 10:19:21 10° ENE daylight
23 Jun - 12:05:53 10° SW 12:15:09 71° SSE 12:24:50 10° ENE daylight
23 Jun - 14:10:25 10° W 14:19:59 83° N 14:29:58 10° E daylight
23 Jun - 16:15:19 10° WNW 16:25:03 80° SSW 16:35:07 10° ESE daylight
23 Jun - 18:20:19 10° WNW 18:29:06 38° SW 18:38:05 10° SSE daylight
24 Jun - 09:39:20 10° S 09:46:34 27° SE 09:53:59 10° E daylight
24 Jun - 11:40:48 10° SW 11:50:00 68° SSE 11:59:36 10° ENE daylight
24 Jun - 13:45:14 10° W 13:54:46 84° N 14:04:43 10° E daylight
24 Jun - 15:50:08 10° WNW 15:59:51 82° SSW 16:09:54 10° ESE daylight
24 Jun - 17:55:04 10° WNW 18:03:59 41° SW 18:13:08 10° SSE daylight
24 Jun - 20:04:56 10° WSW 20:06:43 11° WSW 20:08:31 10° SW visible
25 Jun - 09:14:39 10° S 09:21:32 24° SE 09:28:35 10° E daylight
25 Jun - 11:15:43 10° SW 11:24:52 65° SSE 11:34:22 10° ENE daylight
25 Jun - 13:20:03 10° W 13:29:33 84° N 13:39:28 10° E daylight
25 Jun - 15:24:58 10° WNW 15:34:38 85° SSW 15:44:41 10° ESE daylight
25 Jun - 17:29:50 10° WNW 17:38:52 44° SW 17:48:09 10° SSE daylight
25 Jun - 19:38:15 10° W 19:41:42 12° WSW 19:45:12 10° SW daylight
26 Jun - 08:50:01 10° S 08:56:31 22° SE 09:03:09 10° E daylight
26 Jun - 10:50:40 10° SW 10:59:44 61° SSE 11:09:08 10° ENE daylight
26 Jun - 12:54:52 10° W 13:04:20 85° N 13:14:12 10° E daylight
26 Jun - 14:59:47 10° WNW 15:09:26 87° SSW 15:19:27 10° ESE daylight
26 Jun - 17:04:37 10° WNW 17:13:45 47° SW 17:23:08 10° SSE daylight
26 Jun - 19:12:13 10° W 19:16:41 14° WSW 19:21:13 10° SSW daylight
27 Jun - 08:25:27 10° S 08:31:31 20° SE 08:37:40 10° E daylight
27 Jun - 10:25:38 10° SW 10:34:36 58° SSE 10:43:54 10° ENE daylight
27 Jun - 12:29:41 10° W 12:39:07 86° N 12:48:57 10° E daylight
27 Jun - 14:34:36 10° WNW 14:44:13 89° SSW 14:54:13 10° ESE daylight
27 Jun - 16:39:25 10° WNW 16:48:37 50° SW 16:58:06 10° SE daylight
27 Jun - 18:46:25 10° W 18:51:39 16° SW 18:56:58 10° SSW daylight
